DELTA 2 R/B

Satellite information

Favourite Embed

Satellite Type and Status

ROCKET BODYIN ORBIT

Key statistics

Satellite DELTA 2 R/B at a glance.

Uptime

9684

Days in orbit

Revolutions

≈ 13.5

Per day

Orbit

LEO

Low Earth Orbit

Inclination

51.5

Latest

Satellite identification and parameters

Extended collection of information and parameters for DELTA 2 R/B.

Object identification

Identified? True

Debris? False

Object name: DELTA 2 R/B

International designator: 1999-031E

Object number (NORAD): 25774

Object ID (CCSDS): 25774

Country: UNITED STATES OF AMERICA (US)

Current information (Y/N): Y

RCS size: LARGE

Orbital parameters

Period: 106.923 minutes

Inclination: 51.5256 deg

SMA: 7462.342 km

Apoapsis: 1363.744 km

Periapsis: 804.67 km

RAAN: 204.5131 deg

Eccentricy: 0.03745968

Argument of periapsis: 14.2833 deg

Mean anomaly: 21.524 deg

Mean motion: 13.46759445 rev/day

Mean motion (dot): -0.00000041 rev/day2

B* drag term: 0.000099697962 1/REarth

Two-line elements (TLE)

Creation date: Dec. 14, 2025, 3:07 a.m.

Reference frame: TEME

Reference center: EARTH

Epoch: Dec. 13, 2025, 3:35 p.m. UTC

TLE line 0: 0 DELTA 2 R/B

TLE line 1: 1 25774U 99031E 25347.64973815 -.00000041 00000-0 99698-4 0 9992

TLE line 2: 2 25774 51.5256 204.5131 0374597 14.2833 21.5240 13.46759445304260

Live tracking on map

Real-time ground track for satellite DELTA 2 R/B.

In-orbit conjunctions

A list of the most updated potential collisions computed for object DELTA 2 R/B.

Target Orbit TCA Probability of collision Miss distance Type
CZ-6A DEB LEO 2025-02-09 21:42:08 0.0001392648 724.0 (m) DEBRIS

Associated space launch

The Globalstar global mobile communications network offers global, digital real time voice, data and fax via a constellation of 48 minisatellites. The constellation operates in a 1410 km orbit inclined at 52 degrees, and will also have 8 spares. The satellites were built by Space Systems Loral and Alenia Aerospazio in Rome, Italy.

DELTA 2 R/B was lifted into orbit during the mission ‘Delta 7420-10C | Globalstar 25,47,49,52’, on board a Delta 7420-10C space rocket.

The launch took place on June 10, 1999, 1:48 p.m. from Space Launch Complex 17B.

For more information about the launch, click the button.

Launch to space Delta 7420-10C | Globalstar 25,47,49,52
Delta 7420-10C | Globalstar 25,47,49,52

Agency: N/A

Status: Launch Successful

Launch date: June 10, 1999, 1:48 p.m. UTC

Rocket: Delta 7420-10C

Launch pad: Space Launch Complex 17B

Location: Cape Canaveral SFS, FL, USA

...

Latest news about this satellite

There are no fresh news available about this satellite. Check back as we update our databases every day.


Newsletter sign-up

Weekly statistics, charts and insights to help you stay on top of the space industry.